[[{"header":{"parameterUnit":"m.s-1","parameterCategory":1,"la1":30.2991,"la2":30.254,"lo1":-89.0895,"lo2":-89.0444,"dy":0.0017,"dx":0.0017,"nx":28,"ny":28,"refTime":"2023-10-02T09:00:00:Z","depth":0,"parameterNumber":2,"parameterNumberName":"U-component_of_WINDS"},"data":[0,0,0,0,0,0,0,0,0,0,0,0,0,0,0,0,0,0,0,0,0,0,0,0,0,0,0,0,0,0,0,0,0,0,0,0,0,0,0,0,0,0,0,0,0,0,0,0,0,0,0,0,0,0,0,0,0,0,-4.2926,-4.2927,0,-4.2991,-4.2991,-4.2992,-4.2841,-4.2836,-4.2832,-4.2827,-4.2897,-4.2903,-4.291,0,0,0,0,0,0,0,0,0,0,0,0,0,-4.2675,-4.2681,-4.2926,-4.2927,-4.2928,-4.2991,-4.2991,-4.2992,-4.2842,-4.2836,-4.283,-4.2825,-4.2895,-4.2903,-4.291,0,0,0,0,0,0,0,0,0,0,0,0,0,-4.2767,-4.2683,-4.2926,-4.286,-4.2855,-4.299,-4.2991,-4.2993,-4.2843,-4.2836,-4.2829,-4.2822,-4.2893,-4.2902,-4.2911,-4.3115,0,0,-4.294,-4.2945,0,0,0,0,0,0,0,0,-4.2762,-4.2776,-4.2869,-4.2865,-4.2859,-4.29,-4.2929,-4.3034,-4.2845,-4.2848,-4.2827,-4.2819,-4.2904,-4.2912,-4.2941,-4.3118,-4.3121,-4.2941,-4.2947,-4.2951,-4.2954,0,0,0,0,0,0,0,-4.2756,-4.2773,-4.2952,-4.2871,-4.2865,-4.2828,-4.2833,-4.2948,-4.2916,-4.2847,-4.2836,-4.2846,-4.29,-4.2932,-4.2941,-4.3122,-4.2941,-4.2949,-4.2955,-4.2959,-4.347,-4.3477,0,0,0,0,0,0,-4.2757,-4.2768,-4.295,-4.2954,-4.2792,-4.2839,-4.2844,-4.2895,-4.2914,-4.291,-4.2852,-4.2838,-4.2919,-4.293,-4.2943,-4.3183,-4.2951,-4.296,-4.2965,-4.3462,-4.3472,-4.348,0,0,0,0,0,0,-4.2753,-4.2775,-4.2947,-4.2858,-4.2877,-4.2851,-4.2908,-4.29,-4.2931,-4.2918,-4.2912,-4.289,-4.2914,-4.293,-4.3073,-4.3183,-4.2964,-4.2973,-4.3453,-4.3465,-4.3476,-4.3665,0,0,0,0,0,0,-4.2746,-4.2774,-4.2851,-4.2861,-4.2882,-4.3076,-4.2915,-4.2906,-4.2947,-4.293,-4.2952,-4.2948,-4.2909,-4.306,-4.3082,-4.3193,-4.298,-4.3443,-4.3458,-4.3472,-4.3649,-4.3682,-4.371,0,0,0,0,0,-4.2738,-4.2902,-4.2855,-4.2878,-4.2977,-4.3082,-4.3095,-4.3045,-4.2957,-4.3034,-4.3025,-4.2948,-4.3167,-4.3075,-4.31,-4.3215,-4.3436,-4.3454,-4.3471,-4.3635,-4.3675,-4.3709,0,0,0,0,0,0,-4.2907,-4.2902,-4.285,-4.3023,-4.3054,-4.3056,-4.3152,-4.3089,-4.3147,-4.3129,-4.3066,-4.3073,-4.3229,-4.3235,-4.3133,-4.3413,-4.3287,-4.331,-4.3403,-4.3441,-4.3471,-4.3467,-4.2988,0,0,0,0,0,-4.2964,-4.3049,-4.304,-4.3193,-4.3211,-4.318,-4.3223,-4.3182,-4.3213,-4.3226,-4.3227,-4.3261,-4.3337,-4.3389,-4.3458,-4.3648,-4.3652,-4.3739,-4.377,-4.3795,-4.3817,-4.3919,-4.3958,-4.3538,-4.3538,-4.3538,0,0,-4.3084,-4.3091,-4.3149,-4.3227,-4.3247,-4.3337,-4.3192,-4.3293,-4.336,-4.3241,-4.3377,-4.338,-4.3413,-4.358,-4.3654,-4.3591,-4.3933,-4.3818,-4.3838,-4.3846,-4.3941,-4.3981,-4.4016,-4.355,-4.3548,-4.3546,0,0,-4.3348,-4.3362,-4.3491,-4.3513,-4.3543,-4.3521,-4.3552,-4.3564,-4.3561,-4.3696,-4.3609,-4.3687,-4.382,-4.3847,-4.3879,-4.4153,-4.4084,-4.4177,-4.4338,-4.4438,-4.4471,-4.45,-4.4599,-4.4635,-4.4198,-4.4199,-4.4199,0,-4.3493,-4.3624,-4.3566,-4.3673,-4.3711,-4.3606,-4.3737,-4.3761,-4.3814,-4.3843,-4.377,-4.3935,-4.3949,-4.4123,-4.4189,-4.4218,-4.4252,-4.4175,-4.447,-4.4499,-4.4525,-4.4619,-4.4657,-4.421,-4.4208,-4.4207,-4.4206,0,-4.3802,-4.3894,-4.3995,-4.4047,-4.4096,-4.4215,-4.4175,-4.4232,-4.4186,-4.4172,-4.4311,-4.4324,-4.4395,-4.4433,-4.439,-4.46,-4.456,-4.448,-4.4353,-4.4578,-4.4665,-4.47,-4.4226,-4.4222,-4.4218,-4.4216,0,0,-4.4177,-4.4194,-4.4232,-4.4254,-4.428,-4.4351,-4.4465,-4.4532,-4.4583,-4.4622,-4.4718,-4.4832,-4.4758,-4.4793,-4.4753,-4.484,-4.5058,-4.4749,-4.4749,-4.4808,-4.5292,-4.5354,-4.5396,-4.5011,-4.5018,-4.5023,-4.529,0,-4.4439,-4.4634,-4.4584,-4.4779,-4.4864,-4.4765,-4.4864,-4.4892,-4.4881,-4.4953,-4.4941,-4.5024,-4.4919,-4.494,-4.5022,-4.5014,-4.5155,-4.4994,-4.5101,-4.5106,-4.5098,-4.5442,-4.5507,-4.5758,-4.5324,-4.5329,-4.5333,0,-4.4772,-4.4823,-4.5026,-4.5037,-4.5071,-4.5161,-4.5219,-4.5288,-4.5317,-4.5303,-4.5343,-4.5285,-4.5398,-4.5268,-4.5425,-4.5317,-4.5358,-4.5361,-4.5369,-4.5379,-4.5235,-4.5463,-4.5837,-4.5876,-4.5386,-4.5382,-4.5378,0,-4.5027,-4.5146,-4.5283,-4.5305,-4.5321,-4.5387,-4.5397,-4.5418,-4.5462,-4.5513,-4.5541,-4.5606,-4.5642,-4.5693,-4.5655,-4.5563,-4.5819,-4.5685,-4.5812,-4.5814,-4.5872,-4.587,-4.6261,-4.5896,-4.5895,-4.5895,-4.5894,0,-4.5326,-4.5454,-4.5397,-4.5482,-4.5623,-4.5564,-4.5706,-4.5705,-4.5725,-4.5808,-4.5726,-4.5807,-4.5749,-4.5825,-4.5795,-4.5931,-4.5947,-4.594,-4.5931,-4.5949,-4.595,-4.5977,-4.5959,-4.5904,-4.5902,-4.59,-4.5899,0,-4.5636,-4.5602,-4.5745,-4.5748,-4.5752,-4.5856,-4.5859,-4.5938,-4.592,-4.6027,-4.6049,-4.6023,-4.6108,-4.6073,-4.6163,-4.6143,-4.6318,-4.6284,-4.6308,-4.63,-4.643,-4.6419,-4.6853,-4.6908,-4.6506,-4.651,-4.6513,0,-4.583,-4.5926,-4.5939,-4.5988,-4.6004,-4.6084,-4.6128,-4.6074,-4.6124,-4.6163,-4.6238,-4.6315,-4.6375,-4.6516,-4.6505,-4.6574,-4.6544,-4.6691,-4.6554,-4.6569,-4.6548,-4.6544,-4.6554,-4.6719,-4.6724,-4.6728,-4.6731,0,-4.6179,-4.6157,-4.6223,-4.6284,-4.6338,-4.6384,-4.6422,-4.6467,-4.6415,-4.6475,-4.656,-4.6606,-4.6697,-4.6776,-4.6837,-4.6848,-4.6783,-4.6774,-4.6807,-4.6827,-4.6838,-4.6836,-4.6385,-4.6765,-4.6761,-4.6759,-4.6757,-4.6755,-4.6437,-4.6519,-4.654,-4.6617,-4.6639,-4.6677,-4.6751,-4.6743,-4.6812,-4.6882,-4.6845,-4.6945,-4.6971,-4.7046,-4.7067,-4.7145,-4.7088,-4.7136,-4.7148,-4.7161,-4.7179,-4.6823,-4.7156,-4.7155,-4.7154,-4.7153,-4.7152,0,-4.6783,-4.6792,-4.6862,-4.6918,-4.6979,-4.6908,-4.6947,-4.7003,-4.7091,-4.712,-4.718,-4.7278,-4.7354,-4.7349,-4.7419,-4.7483,-4.7455,-4.7504,-4.75,-4.7504,-4.7226,-4.7191,-4.7525,-4.7525,-4.7525,-4.7525,-4.7525,-4.7525,-4.6971,-4.7104,-4.7086,-4.723,-4.7238,-4.7334,-4.7362,-4.7397,-4.742,-4.7533,-4.7595,-4.7591,-4.7607,-4.7677,-4.7744,-4.7741,-4.7772,-4.7833,-4.7819,-4.756,-4.7523,-4.7488,-4.7454,-4.7839,-4.784,-4.809,-4.8092,-4.8094]},{"header":{"parameterUnit":"m.s-1","parameterCategory":1,"la1":30.2991,"la2":30.254,"lo1":-89.0895,"lo2":-89.0444,"dy":0.0017,"dx":0.0017,"nx":28,"ny":28,"refTime":"2023-10-02T09:00:00:Z","depth":0,"parameterNumber":3,"parameterNumberName":"V-component_of_WINDS"},"data":[0,0,0,0,0,0,0,0,0,0,0,0,0,0,0,0,0,0,0,0,0,0,0,0,0,0,0,0,0,0,0,0,0,0,0,0,0,0,0,0,0,0,0,0,0,0,0,0,0,0,0,0,0,0,0,0,0,0,-2.0332,-2.0332,0,-2.0323,-2.0322,-2.0322,-2.0301,-2.0301,-2.03,-2.03,-2.0289,-2.0289,-2.0289,0,0,0,0,0,0,0,0,0,0,0,0,0,-2.0328,-2.0328,-2.0332,-2.0332,-2.0332,-2.0323,-2.0322,-2.0322,-2.0301,-2.0301,-2.03,-2.03,-2.0289,-2.0289,-2.0289,0,0,0,0,0,0,0,0,0,0,0,0,0,-2.0325,-2.0328,-2.0332,-2.032,-2.0319,-2.0323,-2.0322,-2.0322,-2.0301,-2.0301,-2.03,-2.0299,-2.0289,-2.0289,-2.0289,-2.0303,0,0,-2.029,-2.029,0,0,0,0,0,0,0,0,-2.0325,-2.0325,-2.0322,-2.0321,-2.0319,-2.0312,-2.0317,-2.0316,-2.0301,-2.0308,-2.03,-2.0299,-2.0297,-2.0297,-2.0296,-2.0303,-2.0302,-2.029,-2.029,-2.029,-2.029,0,0,0,0,0,0,0,-2.0326,-2.0326,-2.0328,-2.0322,-2.032,-2.0314,-2.0313,-2.0317,-2.0306,-2.0307,-2.0306,-2.0305,-2.0296,-2.0296,-2.0296,-2.0302,-2.029,-2.029,-2.029,-2.029,-2.0317,-2.0318,0,0,0,0,0,0,-2.0328,-2.0326,-2.0328,-2.0328,-2.0321,-2.0315,-2.0313,-2.0315,-2.0306,-2.0304,-2.0306,-2.0304,-2.0296,-2.0296,-2.0295,-2.0309,-2.029,-2.029,-2.029,-2.0316,-2.0317,-2.0318,0,0,0,0,0,0,-2.0328,-2.0328,-2.0329,-2.0326,-2.0326,-2.0315,-2.0318,-2.0315,-2.0315,-2.0305,-2.0303,-2.0307,-2.0296,-2.0295,-2.0301,-2.0309,-2.029,-2.029,-2.0316,-2.0317,-2.0317,-2.0339,0,0,0,0,0,0,-2.0328,-2.0328,-2.0334,-2.0327,-2.0326,-2.0336,-2.0318,-2.0316,-2.0316,-2.0314,-2.0306,-2.0304,-2.0295,-2.0301,-2.0301,-2.0309,-2.029,-2.0315,-2.0316,-2.0317,-2.0338,-2.0341,-2.0343,0,0,0,0,0,-2.0328,-2.0341,-2.0335,-2.0335,-2.0334,-2.0336,-2.0336,-2.0325,-2.0317,-2.0322,-2.0315,-2.0304,-2.0308,-2.0302,-2.0302,-2.031,-2.0314,-2.0316,-2.0317,-2.0336,-2.034,-2.0343,0,0,0,0,0,0,-2.035,-2.034,-2.0333,-2.0345,-2.0341,-2.0333,-2.0339,-2.033,-2.0329,-2.0327,-2.0314,-2.0312,-2.0319,-2.0315,-2.0308,-2.0321,-2.0309,-2.0311,-2.0324,-2.0327,-2.033,-2.0331,-2.0291,0,0,0,0,0,-2.0357,-2.036,-2.0351,-2.0362,-2.036,-2.035,-2.0351,-2.0343,-2.0339,-2.0337,-2.0331,-2.0327,-2.0326,-2.0327,-2.0326,-2.0337,-2.0334,-2.0342,-2.0345,-2.0347,-2.0349,-2.0352,-2.0355,-2.0322,-2.0322,-2.0322,0,0,-2.037,-2.0364,-2.0367,-2.0366,-2.0363,-2.0365,-2.0349,-2.0353,-2.0354,-2.0338,-2.0342,-2.0337,-2.0332,-2.0339,-2.0343,-2.0336,-2.0357,-2.0349,-2.0351,-2.0351,-2.0353,-2.0356,-2.0359,-2.0323,-2.0323,-2.0323,0,0,-2.0394,-2.0392,-2.0399,-2.0396,-2.0391,-2.0384,-2.0386,-2.0378,-2.0374,-2.0378,-2.0365,-2.0366,-2.0367,-2.0363,-2.0361,-2.0382,-2.0371,-2.0382,-2.0396,-2.04,-2.0402,-2.0404,-2.041,-2.0412,-2.0383,-2.0384,-2.0384,0,-2.0411,-2.0415,-2.0405,-2.0409,-2.0408,-2.0393,-2.0399,-2.0396,-2.0391,-2.039,-2.0383,-2.0383,-2.0378,-2.0383,-2.0388,-2.0388,-2.0388,-2.0383,-2.0403,-2.0405,-2.0407,-2.0412,-2.0414,-2.0385,-2.0385,-2.0384,-2.0384,0,-2.0435,-2.0438,-2.0445,-2.044,-2.044,-2.0445,-2.0434,-2.0435,-2.0427,-2.042,-2.0423,-2.0417,-2.0414,-2.0415,-2.0407,-2.0418,-2.0414,-2.0405,-2.0393,-2.0411,-2.0416,-2.0418,-2.0386,-2.0386,-2.0386,-2.0385,0,0,-2.0474,-2.0462,-2.0465,-2.0462,-2.0454,-2.0456,-2.046,-2.0457,-2.0457,-2.0453,-2.0455,-2.0455,-2.0446,-2.0444,-2.0436,-2.0438,-2.0453,-2.0429,-2.0428,-2.0432,-2.0463,-2.0469,-2.0471,-2.0446,-2.0447,-2.0447,-2.0463,0,-2.0496,-2.0503,-2.0493,-2.0501,-2.0503,-2.0487,-2.049,-2.0485,-2.0479,-2.0478,-2.047,-2.047,-2.0459,-2.0457,-2.0459,-2.0451,-2.0459,-2.045,-2.0446,-2.0446,-2.0447,-2.0474,-2.0481,-2.0496,-2.0465,-2.0465,-2.0465,0,-2.0523,-2.052,-2.0529,-2.0519,-2.0519,-2.0523,-2.0518,-2.0518,-2.0511,-2.0506,-2.0502,-2.0492,-2.0494,-2.0482,-2.0483,-2.0477,-2.0475,-2.047,-2.0471,-2.0469,-2.0456,-2.0472,-2.0501,-2.0503,-2.0468,-2.0468,-2.0468,0,-2.0549,-2.0547,-2.0552,-2.055,-2.0539,-2.0541,-2.0536,-2.0529,-2.0527,-2.0523,-2.0521,-2.0517,-2.0515,-2.0511,-2.0499,-2.0492,-2.0501,-2.0489,-2.0495,-2.0495,-2.0497,-2.0497,-2.0525,-2.0498,-2.0498,-2.0498,-2.0498,0,-2.0573,-2.0579,-2.0563,-2.0566,-2.0571,-2.0558,-2.0563,-2.0557,-2.055,-2.055,-2.0537,-2.0537,-2.0522,-2.052,-2.051,-2.0512,-2.0511,-2.0505,-2.0503,-2.0506,-2.0507,-2.0504,-2.0502,-2.0498,-2.0498,-2.0498,-2.0498,0,-2.0603,-2.0592,-2.0596,-2.0585,-2.0582,-2.0586,-2.0576,-2.0577,-2.0569,-2.0569,-2.0568,-2.0555,-2.0552,-2.054,-2.0534,-2.0528,-2.0531,-2.0527,-2.0534,-2.0532,-2.0538,-2.0537,-2.0565,-2.0567,-2.054,-2.054,-2.054,0,-2.0619,-2.0622,-2.0611,-2.0611,-2.0606,-2.0606,-2.0603,-2.0591,-2.0589,-2.058,-2.0582,-2.0578,-2.0574,-2.0569,-2.0558,-2.0553,-2.0548,-2.0557,-2.0547,-2.0549,-2.0546,-2.0545,-2.0545,-2.056,-2.056,-2.056,-2.0561,0,-2.0647,-2.0642,-2.064,-2.0635,-2.0633,-2.0629,-2.0624,-2.0624,-2.0609,-2.0607,-2.0604,-2.0601,-2.0594,-2.0589,-2.0582,-2.0576,-2.0565,-2.0564,-2.0565,-2.0568,-2.0571,-2.0568,-2.0539,-2.0563,-2.0563,-2.0563,-2.0563,-2.0563,-2.0669,-2.0671,-2.0663,-2.0661,-2.0656,-2.0651,-2.0651,-2.0642,-2.0639,-2.0633,-2.0626,-2.0623,-2.0614,-2.0603,-2.0597,-2.0594,-2.0588,-2.059,-2.059,-2.0591,-2.0592,-2.0572,-2.0593,-2.0593,-2.0593,-2.0593,-2.0592,0,-2.0696,-2.069,-2.0688,-2.0681,-2.0678,-2.0669,-2.0662,-2.0661,-2.0658,-2.0651,-2.0647,-2.0642,-2.0637,-2.0626,-2.0619,-2.0619,-2.0613,-2.0617,-2.0617,-2.0615,-2.0598,-2.0597,-2.0622,-2.0622,-2.0622,-2.0622,-2.0622,-2.0621,-2.071,-2.0712,-2.0705,-2.0703,-2.0697,-2.0694,-2.0691,-2.0686,-2.068,-2.0675,-2.0671,-2.0664,-2.0654,-2.0647,-2.0641,-2.0638,-2.0635,-2.064,-2.0635,-2.0619,-2.0616,-2.0614,-2.0613,-2.064,-2.064,-2.0652,-2.0653,-2.0653]}]]